Retour au catalogue

DELTA 1 DEB

ActifSSO
NORAD 12262·DEBRIS·🇺🇸 United States

Lancé Mar 5, 1978 depuis Vandenberg Space Force Base

Loading…

Prochains Passages (prochaines 24 heures)

TLE

FraisSource: Space-Track

Époque: Sep 13, 2026, 23:01 UTC

1 12262U 78026DF  26256.95958647  .00001767  00000-0  79790-3 0  9996
2 12262  99.0259  46.7656 0091965 311.4306 171.5637 14.21251084317055

Suivez DELTA 1 DEB en temps réel avec AllMySat

Download on the App Store